Home > Weather > Schwerte > Past weeks

Flag for Germany Past Weather in Schwerte, North Rhine-Westphalia, Germany — Yesterday and Last 2 Weeks

Now
68 °F

Scattered clouds.


Feels Like: 68 °F
Forecast: 61 / 69 °F
Wind: 9 mph from Southwest

Location: Dortmund / Wickede

Current Time: Jul 27, 2016 at 11:59:29 AM

Latest Report: Jul 27, 2016 at 10:50 AM


Visibility: N/A

Pressure: 30.04 "Hg

Humidity: 69%

Dew Point: 57 °F

Location of SchwerteLocation

Past Weather in Schwerte — Graph

°F

Schwerte Temperature Yesterday

Maximum temperature yesterday: 73 °F (at 2:20 PM)
Minimum temperature yesterday: 61 °F (at 5:50 AM)
Average temperature yesterday: 67 °F

High & Low Weather Summary for the Past Weeks

 TemperatureHumidityPressure
High91 °F (Jul 20, 3:20 PM)88% (Jul 13, 5:20 AM)30.30 "Hg (Jul 13, 5:20 AM)
Low48 °F (Jul 14, 5:20 AM)20% (Jul 20, 5:20 PM)29.86 "Hg (Jul 20, 6:20 PM)
Average69 °F60%30.08 "Hg
* Reported Jul 12 10:20 AM — Jul 27 10:20 AM, Schwerte, Weather by CustomWeather, © 2016

Note: Actual official high and low records may vary slightly from our data, if they occured in-between our weather recording intervals... More about our weather records

Advertising

Schwerte Weather History for the Previous 24 Hours

Scroll right to see more
 ConditionsComfort  
Time TempWeatherWind HumidityBarometerVisibility
10:20 AM
Wed, Jul 27
64 °FPassing clouds.10 mph73%30.07 "Hg6 mi
9:50 AM66 °FPassing clouds.10 mph68%30.04 "HgN/A
9:20 AM66 °FScattered clouds.10 mph68%30.04 "HgN/A
8:50 AM64 °FScattered clouds.9 mph73%30.04 "HgN/A
8:20 AM63 °FSunny.7 mph77%30.04 "Hg10 mi
7:50 AM61 °FSunny.9 mph77%30.04 "Hg10 mi
7:20 AM59 °FSunny.9 mph82%30.04 "Hg10 mi
6:50 AM59 °FSunny.8 mph82%30.04 "Hg10 mi
6:20 AM57 °FClear.8 mph88%30.04 "Hg10 mi
5:50 AM57 °FClear.6 mph82%30.04 "Hg10 mi
5:20 AM59 °FClear.5 mph82%30.07 "Hg10 mi
9:50 PM
Tue, Jul 26
64 °FSunny.8 mph73%30.12 "Hg10 mi
9:20 PM64 °FPartly sunny.7 mph73%30.12 "HgN/A
8:50 PM64 °FPartly sunny.8 mph73%30.12 "HgN/A
8:20 PM64 °FPartly sunny.7 mph73%30.12 "HgN/A
7:50 PM64 °FPartly sunny.9 mph73%30.12 "HgN/A
7:20 PM66 °FPartly sunny.8 mph64%30.12 "HgN/A
6:50 PM68 °FPartly sunny.6 mph56%30.12 "HgN/A
6:20 PM68 °FPartly sunny.5 mph53%30.12 "HgN/A
5:50 PM70 °FBroken clouds.9 mph50%30.12 "HgN/A
5:20 PM72 °FPartly sunny.5 mph47%30.12 "HgN/A
4:50 PM72 °FPartly sunny.7 mph47%30.12 "HgN/A
4:20 PM72 °FPartly sunny.7 mph50%30.12 "HgN/A
3:50 PM72 °FPartly sunny.8 mph47%30.12 "HgN/A
3:20 PM73 °FPartly sunny.7 mph47%30.12 "HgN/A
2:50 PM73 °FPartly sunny.7 mph50%30.12 "HgN/A
2:20 PM73 °FPassing clouds.5 mph53%30.12 "HgN/A
1:50 PM72 °FScattered clouds.3 mph57%30.12 "HgN/A
1:20 PM72 °FPassing clouds.3 mph57%30.15 "HgN/A
12:50 PM72 °FPassing clouds.5 mph57%30.15 "HgN/A
12:20 PM70 °FSunny.2 mph60%30.15 "Hg10 mi
11:50 AM70 °FPassing clouds.6 mph64%30.15 "HgN/A
11:20 AM68 °FPartly sunny.3 mph69%30.15 "HgN/A
Weather by CustomWeather, © 2016

See weather overviewHow to use our weather pages